[[{"header":{"parameterUnit":"m.s-1","parameterCategory":1,"la1":30.2991,"la2":30.254,"lo1":-89.0895,"lo2":-89.0444,"dy":0.0017,"dx":0.0017,"nx":28,"ny":28,"refTime":"2023-09-18T09:00:00:Z","depth":0,"parameterNumber":2,"parameterNumberName":"U-component_of_WINDS"},"data":[0,0,0,0,0,0,0,0,0,0,0,0,0,0,0,0,0,0,0,0,0,0,0,0,0,0,0,0,0,0,0,0,0,0,0,0,0,0,0,0,0,0,0,0,0,0,0,0,0,0,0,0,0,0,0,0,0,0,-0.6633,-0.6633,0,-0.6694,-0.6694,-0.6695,-0.6719,-0.6718,-0.6718,-0.6718,-0.6782,-0.6784,-0.6786,0,0,0,0,0,0,0,0,0,0,0,0,0,-0.654,-0.6542,-0.6633,-0.6634,-0.6634,-0.6693,-0.6694,-0.6695,-0.6719,-0.6718,-0.6718,-0.6718,-0.6782,-0.6784,-0.6786,0,0,0,0,0,0,0,0,0,0,0,0,0,-0.6588,-0.6542,-0.6633,-0.6653,-0.6656,-0.6693,-0.6694,-0.6695,-0.6719,-0.6718,-0.6718,-0.6718,-0.6781,-0.6784,-0.6786,-0.6809,0,0,-0.6795,-0.6796,0,0,0,0,0,0,0,0,-0.6586,-0.6592,-0.6649,-0.6652,-0.6655,-0.6698,-0.6685,-0.6734,-0.6719,-0.6695,-0.6718,-0.6718,-0.6755,-0.676,-0.6772,-0.6812,-0.6815,-0.6795,-0.6797,-0.6798,-0.6799,0,0,0,0,0,0,0,-0.6582,-0.6589,-0.6657,-0.665,-0.6653,-0.666,-0.6667,-0.6694,-0.6726,-0.6697,-0.6699,-0.6706,-0.6756,-0.6769,-0.6773,-0.6816,-0.6795,-0.6798,-0.6799,-0.6801,-0.6879,-0.688,0,0,0,0,0,0,-0.6575,-0.6586,-0.6655,-0.6659,-0.6619,-0.6662,-0.667,-0.6685,-0.6725,-0.6731,-0.6706,-0.6706,-0.6764,-0.677,-0.6776,-0.6806,-0.6798,-0.6801,-0.6802,-0.6879,-0.6879,-0.688,0,0,0,0,0,0,-0.6573,-0.6581,-0.6653,-0.6623,-0.6633,-0.6664,-0.6681,-0.6686,-0.6699,-0.6732,-0.6738,-0.6713,-0.6764,-0.6772,-0.6801,-0.6808,-0.6802,-0.6805,-0.6878,-0.6879,-0.688,-0.6866,0,0,0,0,0,0,-0.657,-0.658,-0.6588,-0.6623,-0.6634,-0.6676,-0.6681,-0.6687,-0.6703,-0.6705,-0.674,-0.6746,-0.6765,-0.6796,-0.6804,-0.6812,-0.6807,-0.6878,-0.6879,-0.688,-0.6865,-0.6866,-0.6866,0,0,0,0,0,-0.6567,-0.6582,-0.6588,-0.6597,-0.6645,-0.6676,-0.6682,-0.6703,-0.6704,-0.6713,-0.6734,-0.6745,-0.6806,-0.6799,-0.6807,-0.6817,-0.6878,-0.6879,-0.6879,-0.6865,-0.6866,-0.6866,0,0,0,0,0,0,-0.6547,-0.6587,-0.6595,-0.6621,-0.6645,-0.668,-0.6692,-0.6702,-0.6727,-0.6728,-0.6753,-0.6761,-0.6788,-0.6805,-0.6797,-0.6842,-0.6843,-0.6845,-0.6829,-0.683,-0.683,-0.6825,-0.6809,0,0,0,0,0,-0.6546,-0.6567,-0.6601,-0.6621,-0.6633,-0.666,-0.6674,-0.6688,-0.6714,-0.6725,-0.6749,-0.6774,-0.6799,-0.6816,-0.684,-0.6868,-0.6877,-0.6879,-0.6879,-0.6879,-0.6881,-0.6898,-0.69,-0.6883,-0.6883,-0.6883,0,0,-0.6543,-0.6568,-0.658,-0.6618,-0.6638,-0.666,-0.6668,-0.6691,-0.6709,-0.6729,-0.6758,-0.6776,-0.6806,-0.6835,-0.6849,-0.685,-0.6888,-0.688,-0.688,-0.6882,-0.69,-0.6901,-0.6903,-0.6884,-0.6883,-0.6883,0,0,-0.6551,-0.6571,-0.659,-0.661,-0.6641,-0.6659,-0.6664,-0.6698,-0.6711,-0.674,-0.6756,-0.6777,-0.682,-0.6841,-0.6858,-0.6875,-0.6886,-0.6882,-0.6883,-0.69,-0.6901,-0.6902,-0.691,-0.6912,-0.6884,-0.6884,-0.6884,0,-0.6544,-0.6578,-0.6599,-0.6622,-0.6639,-0.6657,-0.6678,-0.6697,-0.6734,-0.6746,-0.6747,-0.6802,-0.6824,-0.6859,-0.6863,-0.6875,-0.6882,-0.6878,-0.6899,-0.6901,-0.6902,-0.6909,-0.6912,-0.6884,-0.6884,-0.6884,-0.6884,0,-0.6569,-0.6592,-0.6604,-0.664,-0.6658,-0.668,-0.6705,-0.6722,-0.6735,-0.6753,-0.6784,-0.6811,-0.6842,-0.6851,-0.6864,-0.6888,-0.6889,-0.6894,-0.6896,-0.6903,-0.691,-0.6913,-0.6883,-0.6883,-0.6883,-0.6883,0,0,-0.6564,-0.6612,-0.6616,-0.6633,-0.6669,-0.6688,-0.6711,-0.6742,-0.6756,-0.6781,-0.6802,-0.6838,-0.6844,-0.6863,-0.6878,-0.6893,-0.6906,-0.6897,-0.6898,-0.6898,-0.6936,-0.6933,-0.6935,-0.6914,-0.6914,-0.6915,-0.6934,0,-0.6577,-0.6618,-0.6639,-0.6672,-0.6695,-0.6714,-0.6734,-0.6759,-0.6778,-0.68,-0.6821,-0.6847,-0.6852,-0.6863,-0.6879,-0.6901,-0.6914,-0.69,-0.6935,-0.6936,-0.6927,-0.6939,-0.6935,-0.6952,-0.6937,-0.6938,-0.6938,0,-0.6597,-0.6622,-0.6657,-0.6692,-0.6702,-0.672,-0.6751,-0.6772,-0.6801,-0.6813,-0.6835,-0.685,-0.6877,-0.6876,-0.6914,-0.6904,-0.6919,-0.6933,-0.6934,-0.6939,-0.6937,-0.6945,-0.6958,-0.696,-0.6942,-0.6942,-0.6942,0,-0.6591,-0.6634,-0.6661,-0.6675,-0.6716,-0.6728,-0.6746,-0.6775,-0.6792,-0.6819,-0.6831,-0.6861,-0.6877,-0.6901,-0.6924,-0.6921,-0.696,-0.6961,-0.6972,-0.6972,-0.698,-0.6979,-0.6996,-0.6988,-0.6988,-0.6988,-0.6988,0,-0.6603,-0.6624,-0.666,-0.6676,-0.6701,-0.6725,-0.675,-0.6769,-0.6795,-0.6817,-0.6835,-0.6855,-0.6884,-0.6909,-0.6927,-0.6956,-0.6964,-0.6975,-0.698,-0.6974,-0.6973,-0.6985,-0.6985,-0.6989,-0.6989,-0.6989,-0.6989,0,-0.6601,-0.6625,-0.6656,-0.6693,-0.6703,-0.6719,-0.6751,-0.6769,-0.6788,-0.6816,-0.6824,-0.6855,-0.6885,-0.691,-0.6949,-0.6962,-0.6993,-0.6998,-0.6982,-0.6985,-0.6995,-0.6994,-0.7021,-0.7027,-0.7014,-0.7014,-0.7015,0,-0.6607,-0.6624,-0.6663,-0.6678,-0.6696,-0.6721,-0.6739,-0.6764,-0.6782,-0.6818,-0.6832,-0.6863,-0.6889,-0.6935,-0.6962,-0.6993,-0.7,-0.7007,-0.7004,-0.6998,-0.7001,-0.7,-0.7002,-0.7007,-0.7007,-0.7007,-0.7007,0,-0.6616,-0.6628,-0.6653,-0.6683,-0.6704,-0.6729,-0.6754,-0.6767,-0.6797,-0.6817,-0.6847,-0.6867,-0.6908,-0.6939,-0.6973,-0.6992,-0.7005,-0.7008,-0.7012,-0.7006,-0.6997,-0.7004,-0.6984,-0.7007,-0.7007,-0.7007,-0.7007,-0.7007,-0.6619,-0.6636,-0.6666,-0.6694,-0.6716,-0.6739,-0.6758,-0.6781,-0.6806,-0.6841,-0.6855,-0.6886,-0.6917,-0.6963,-0.6983,-0.7009,-0.7011,-0.7017,-0.7018,-0.702,-0.7019,-0.6993,-0.7015,-0.7015,-0.7015,-0.7015,-0.7015,0,-0.663,-0.6651,-0.6676,-0.6711,-0.6734,-0.6744,-0.6773,-0.6792,-0.6819,-0.6846,-0.6872,-0.6908,-0.6938,-0.6968,-0.7,-0.7015,-0.7022,-0.7023,-0.7023,-0.7027,-0.7015,-0.7008,-0.7017,-0.7017,-0.7017,-0.7017,-0.7017,-0.7017,-0.6638,-0.6667,-0.6683,-0.6723,-0.6744,-0.6775,-0.6791,-0.6813,-0.6835,-0.6874,-0.69,-0.6919,-0.6948,-0.6983,-0.7012,-0.702,-0.7031,-0.7031,-0.704,-0.7028,-0.7028,-0.7027,-0.7021,-0.7033,-0.7033,-0.7051,-0.7051,-0.7051]},{"header":{"parameterUnit":"m.s-1","parameterCategory":1,"la1":30.2991,"la2":30.254,"lo1":-89.0895,"lo2":-89.0444,"dy":0.0017,"dx":0.0017,"nx":28,"ny":28,"refTime":"2023-09-18T09:00:00:Z","depth":0,"parameterNumber":3,"parameterNumberName":"V-component_of_WINDS"},"data":[0,0,0,0,0,0,0,0,0,0,0,0,0,0,0,0,0,0,0,0,0,0,0,0,0,0,0,0,0,0,0,0,0,0,0,0,0,0,0,0,0,0,0,0,0,0,0,0,0,0,0,0,0,0,0,0,0,0,2.3164,2.3162,0,2.2982,2.298,2.2978,2.2845,2.2844,2.2843,2.2842,2.2644,2.2639,2.2635,0,0,0,0,0,0,0,0,0,0,0,0,0,2.3385,2.3382,2.3164,2.3162,2.316,2.2982,2.298,2.2977,2.2845,2.2844,2.2843,2.2841,2.2645,2.264,2.2635,0,0,0,0,0,0,0,0,0,0,0,0,0,2.3255,2.3381,2.3164,2.3073,2.3063,2.2983,2.298,2.2977,2.2846,2.2844,2.2842,2.2841,2.2647,2.264,2.2634,2.2627,0,0,2.2615,2.2612,0,0,0,0,0,0,0,0,2.3262,2.3246,2.3088,2.3079,2.3067,2.2935,2.2985,2.2859,2.2846,2.2928,2.2842,2.284,2.2741,2.2727,2.2696,2.2618,2.261,2.2614,2.261,2.2607,2.2605,0,0,0,0,0,0,0,2.3271,2.3253,2.3092,2.3086,2.3073,2.3036,2.3016,2.296,2.2845,2.292,2.291,2.2891,2.2735,2.2702,2.269,2.2607,2.2614,2.2608,2.2604,2.2602,2.2511,2.2512,0,0,0,0,0,0,2.3296,2.3262,2.3097,2.3086,2.3163,2.3034,2.3011,2.2979,2.2846,2.2824,2.2893,2.2886,2.2714,2.2698,2.2683,2.2664,2.2607,2.2601,2.2598,2.2509,2.2511,2.2512,0,0,0,0,0,0,2.3302,2.3283,2.3105,2.3171,2.3146,2.3032,2.2997,2.2976,2.2944,2.2825,2.2803,2.2882,2.2712,2.2692,2.2642,2.2655,2.2598,2.2593,2.2508,2.251,2.2512,2.2629,0,0,0,0,0,0,2.3309,2.3286,2.3285,2.3173,2.3143,2.3072,2.2998,2.2974,2.2934,2.2923,2.2809,2.2788,2.2709,2.2653,2.2636,2.2646,2.2588,2.2506,2.2509,2.2511,2.2623,2.2634,2.2644,0,0,0,0,0,2.3317,2.3323,2.3286,2.3267,2.314,2.3073,2.3055,2.2968,2.2936,2.2932,2.2856,2.2791,2.2657,2.2649,2.2629,2.2637,2.2504,2.2508,2.2511,2.2618,2.2632,2.2644,0,0,0,0,0,0,2.3436,2.3307,2.3264,2.3235,2.3166,2.3051,2.3043,2.2986,2.2923,2.2914,2.2805,2.278,2.2742,2.2684,2.2677,2.2621,2.2572,2.2572,2.2661,2.2673,2.2684,2.2697,2.2582,0,0,0,0,0,2.346,2.342,2.3307,2.3292,2.326,2.3159,2.3126,2.3065,2.2988,2.2957,2.2877,2.2801,2.2741,2.2704,2.2643,2.2614,2.2585,2.261,2.262,2.263,2.263,2.2607,2.2616,2.2523,2.2523,2.2523,0,0,2.3507,2.3431,2.3412,2.3314,2.3254,2.3211,2.3135,2.3093,2.3058,2.2949,2.2898,2.2837,2.2745,2.2706,2.2684,2.2656,2.2649,2.2634,2.2642,2.2636,2.2611,2.262,2.2628,2.2525,2.2525,2.2524,0,0,2.357,2.3511,2.3491,2.3433,2.3344,2.3276,2.3271,2.3164,2.312,2.3069,2.2985,2.2941,2.2841,2.2779,2.2734,2.2773,2.271,2.2756,2.281,2.279,2.2797,2.2803,2.2815,2.2821,2.2757,2.2757,2.2757,0,2.3639,2.3575,2.3487,2.345,2.3408,2.3311,2.3287,2.3234,2.3128,2.3099,2.3071,2.2943,2.2874,2.2818,2.2828,2.2796,2.2783,2.2768,2.2804,2.2809,2.2813,2.2823,2.2828,2.2763,2.2762,2.2761,2.2761,0,2.3662,2.3619,2.3612,2.3517,2.3474,2.3444,2.3347,2.3314,2.3257,2.3191,2.3137,2.3051,2.297,2.2952,2.2895,2.2887,2.2872,2.2826,2.2774,2.283,2.2837,2.284,2.2771,2.2769,2.2767,2.2766,0,0,2.3795,2.3652,2.3651,2.3605,2.35,2.3462,2.3426,2.3351,2.3323,2.3253,2.3217,2.3136,2.3092,2.3041,2.2975,2.2957,2.2991,2.2912,2.2908,2.2928,2.2974,2.3009,2.3015,2.295,2.295,2.295,2.2981,0,2.384,2.3775,2.3694,2.3655,2.3611,2.3519,2.3486,2.3416,2.3353,2.3304,2.3232,2.3175,2.3123,2.3091,2.307,2.2992,2.2998,2.2989,2.2911,2.2909,2.2936,2.3019,2.3055,2.3088,2.2983,2.2984,2.2984,0,2.3885,2.3823,2.3781,2.3678,2.3657,2.3631,2.3554,2.351,2.3426,2.3381,2.3325,2.3255,2.3208,2.3164,2.3095,2.309,2.3053,2.301,2.3008,2.2996,2.2949,2.3006,2.3097,2.3102,2.2988,2.2987,2.2987,0,2.3983,2.3889,2.3851,2.3816,2.3696,2.3679,2.3627,2.3543,2.3502,2.3434,2.3405,2.3331,2.329,2.3232,2.3142,2.3119,2.3082,2.303,2.3039,2.3042,2.3034,2.3036,2.3119,2.3015,2.3015,2.3014,2.3014,0,2.4041,2.4018,2.3894,2.3871,2.3841,2.3746,2.3718,2.3657,2.3583,2.3543,2.3457,2.342,2.3304,2.3252,2.3181,2.3133,2.3115,2.3075,2.3056,2.3081,2.3087,2.3054,2.3049,2.3016,2.3015,2.3015,2.3015,0,2.4146,2.4063,2.4015,2.3906,2.3878,2.386,2.3765,2.3736,2.3669,2.3619,2.3601,2.3494,2.3428,2.3334,2.3238,2.319,2.3152,2.3122,2.3181,2.317,2.3183,2.3183,2.3246,2.3249,2.3147,2.3148,2.3149,0,2.4188,2.4169,2.4059,2.4028,2.398,2.3931,2.389,2.3795,2.3755,2.3659,2.364,2.3569,2.3507,2.3406,2.3316,2.3242,2.3208,2.3236,2.3196,2.3223,2.3206,2.3208,2.3204,2.3245,2.3247,2.3248,2.3249,0,2.4271,2.423,2.4177,2.4109,2.4063,2.4003,2.3939,2.3917,2.3808,2.3766,2.3701,2.3653,2.3557,2.3486,2.34,2.3341,2.3275,2.3263,2.326,2.3286,2.332,2.3299,2.3205,2.3261,2.326,2.3259,2.3258,2.3258,2.4343,2.4321,2.4241,2.4183,2.4126,2.4068,2.4035,2.3965,2.391,2.3827,2.3774,2.371,2.3624,2.3502,2.3447,2.3392,2.3365,2.3363,2.3361,2.3362,2.337,2.3331,2.3376,2.3376,2.3375,2.3375,2.3374,0,2.4419,2.4363,2.4312,2.4227,2.418,2.4128,2.4054,2.4017,2.3964,2.3892,2.3833,2.3756,2.3686,2.3592,2.3515,2.3489,2.3457,2.3471,2.3471,2.3458,2.34,2.3409,2.3499,2.3499,2.3499,2.3499,2.3499,2.3499,2.4454,2.4413,2.4363,2.4292,2.4234,2.4175,2.4137,2.4081,2.4023,2.3942,2.3886,2.3827,2.3743,2.3659,2.3592,2.3565,2.3539,2.3563,2.3527,2.3474,2.3463,2.3452,2.3459,2.3559,2.3559,2.359,2.359,2.359]}]]